BJN099 LOWW-LOWI

Flight info

Callsign BJN099
Flight time 0h 36m
Altitude 30000
Route ODSU2C/29 SOVIL DCT SITNI DCT BAGSI DCT NANIT NANIT2A
Aircraft B737/M-SDE2E3FGHIRWXY/LB1

Departure

Time 2026-04-24 21:43
Airport Vienna International Airport (LOWW)

Arrival

Time 2026-04-24 22:20
Airport Innsbruck Airport (LOWI)
Time Latitude Longitude Altitude Speed Heading
2026-04-24 21:27 48.12821 16.53565 620 ft 0 kts 297°
2026-04-24 21:30 48.12817 16.53577 608 ft 2 kts 297°
2026-04-24 21:31 48.12810 16.53598 615 ft 2 kts 297°
2026-04-24 21:31 48.12802 16.53620 611 ft 2 kts 297°
2026-04-24 21:31 48.12797 16.53635 608 ft 0 kts 297°
2026-04-24 21:34 48.12797 16.53634 608 ft 0 kts 292°
2026-04-24 21:34 48.12794 16.53627 614 ft 1 kts 236°
2026-04-24 21:34 48.12779 16.53607 611 ft 5 kts 219°
2026-04-24 21:35 48.12733 16.53585 608 ft 9 kts 195°
2026-04-24 21:35 48.12672 16.53557 611 ft 8 kts 151°
2026-04-24 21:35 48.12642 16.53563 611 ft 5 kts 193°
2026-04-24 21:35 48.12595 16.53534 620 ft 9 kts 205°
2026-04-24 21:36 48.12532 16.53500 613 ft 10 kts 186°
2026-04-24 21:36 48.12465 16.53492 616 ft 10 kts 186°
2026-04-24 21:36 48.12420 16.53556 611 ft 10 kts 113°
2026-04-24 21:36 48.12390 16.53649 618 ft 11 kts 116°
2026-04-24 21:37 48.12354 16.53762 608 ft 13 kts 116°
2026-04-24 21:37 48.12307 16.53903 622 ft 17 kts 116°
2026-04-24 21:37 48.12248 16.54085 616 ft 22 kts 116°
2026-04-24 21:37 48.12174 16.54312 617 ft 27 kts 116°
2026-04-24 21:38 48.12097 16.54551 615 ft 27 kts 116°
2026-04-24 21:38 48.12021 16.54787 616 ft 25 kts 115°
2026-04-24 21:38 48.11948 16.55002 617 ft 23 kts 115°
2026-04-24 21:38 48.11883 16.55205 619 ft 22 kts 116°
2026-04-24 21:39 48.11819 16.55403 611 ft 22 kts 116°
2026-04-24 21:39 48.11754 16.55601 616 ft 21 kts 116°
2026-04-24 21:39 48.11691 16.55795 611 ft 20 kts 116°
2026-04-24 21:39 48.11633 16.55976 608 ft 20 kts 116°
2026-04-24 21:40 48.11576 16.56151 610 ft 19 kts 116°
2026-04-24 21:40 48.11518 16.56327 610 ft 19 kts 116°
2026-04-24 21:40 48.11459 16.56511 608 ft 20 kts 116°
2026-04-24 21:40 48.11397 16.56699 615 ft 20 kts 116°
2026-04-24 21:41 48.11337 16.56881 621 ft 19 kts 115°
2026-04-24 21:41 48.11281 16.57058 614 ft 19 kts 116°
2026-04-24 21:41 48.11225 16.57221 614 ft 12 kts 131°
2026-04-24 21:41 48.11153 16.57215 608 ft 11 kts 205°
2026-04-24 21:42 48.11084 16.57166 608 ft 11 kts 206°
2026-04-24 21:42 48.11053 16.57122 611 ft 6 kts 265°
2026-04-24 21:42 48.11067 16.57068 608 ft 6 kts 297°
2026-04-24 21:42 48.11092 16.56991 616 ft 28 kts 295°
2026-04-24 21:43 48.11323 16.56280 616 ft 122 kts 296°
2026-04-24 21:43 48.11796 16.54812 812 ft 175 kts 297°
2026-04-24 21:43 48.12309 16.53229 2116 ft 161 kts 299°
2026-04-24 21:43 48.12681 16.51659 3236 ft 172 kts 279°
2026-04-24 21:44 48.12501 16.49788 4151 ft 187 kts 254°
2026-04-24 21:44 48.11754 16.48124 4743 ft 200 kts 227°
2026-04-24 21:44 48.10688 16.46740 5202 ft 207 kts 227°
2026-04-24 21:44 48.09612 16.45341 6283 ft 202 kts 231°
2026-04-24 21:45 48.08753 16.43713 7194 ft 201 kts 242°
2026-04-24 21:45 48.07922 16.41975 8111 ft 209 kts 240°
2026-04-24 21:45 48.07061 16.40210 9138 ft 212 kts 240°
2026-04-24 21:45 48.06176 16.38408 10099 ft 218 kts 240°
2026-04-24 21:46 48.05264 16.36560 10989 ft 222 kts 239°
2026-04-24 21:46 48.04338 16.34685 11900 ft 227 kts 239°
2026-04-24 21:46 48.03468 16.32737 12780 ft 228 kts 255°
2026-04-24 21:46 48.03275 16.30448 13712 ft 222 kts 276°
2026-04-24 21:47 48.03312 16.28111 14579 ft 227 kts 276°
2026-04-24 21:47 48.03360 16.25746 15516 ft 228 kts 276°
2026-04-24 21:47 48.03409 16.23360 16470 ft 230 kts 276°
2026-04-24 21:47 48.03457 16.20958 17396 ft 233 kts 276°
2026-04-24 21:48 48.03504 16.18522 18327 ft 236 kts 276°
2026-04-24 21:48 48.03551 16.16056 19156 ft 239 kts 275°
2026-04-24 21:48 48.03598 16.13555 19968 ft 243 kts 275°
2026-04-24 21:48 48.03643 16.11018 20801 ft 246 kts 275°
2026-04-24 21:49 48.03687 16.08450 21648 ft 249 kts 275°
2026-04-24 21:49 48.03730 16.05843 22491 ft 253 kts 275°
2026-04-24 21:49 48.03773 16.03199 23314 ft 256 kts 275°
2026-04-24 21:49 48.03816 16.00511 24080 ft 260 kts 275°
2026-04-24 21:50 48.03858 15.97799 24805 ft 262 kts 275°
2026-04-24 21:50 48.03901 15.95059 25471 ft 269 kts 275°
2026-04-24 21:50 48.03946 15.92195 25933 ft 281 kts 275°
2026-04-24 21:50 48.03991 15.89287 26621 ft 285 kts 274°
2026-04-24 21:51 48.04036 15.86256 27104 ft 300 kts 274°
2026-04-24 21:51 48.04084 15.83029 27379 ft 320 kts 274°
2026-04-24 21:51 48.04134 15.79603 27638 ft 340 kts 274°
2026-04-24 21:51 48.04185 15.75970 27883 ft 359 kts 274°
2026-04-24 21:52 48.04237 15.72138 28101 ft 378 kts 274°
2026-04-24 21:52 48.04290 15.68108 28270 ft 396 kts 273°
2026-04-24 21:52 48.04343 15.63908 28418 ft 413 kts 273°
2026-04-24 21:52 48.04396 15.59531 28547 ft 428 kts 273°
2026-04-24 21:53 48.04450 15.55004 28695 ft 441 kts 273°
2026-04-24 21:53 48.04501 15.50431 28934 ft 450 kts 273°
2026-04-24 21:53 48.04553 15.45659 29254 ft 456 kts 272°
2026-04-24 21:53 48.04604 15.40923 29906 ft 454 kts 272°
2026-04-24 21:54 48.04654 15.36249 30061 ft 460 kts 273°
2026-04-24 21:54 48.04801 15.26690 30080 ft 458 kts 273°
2026-04-24 21:55 48.04958 15.17211 30081 ft 455 kts 273°
2026-04-24 21:55 48.05101 15.07761 30096 ft 454 kts 273°
2026-04-24 21:56 48.05231 14.98322 30087 ft 454 kts 272°
2026-04-24 21:56 48.05356 14.88929 30100 ft 454 kts 272°
2026-04-24 21:57 48.05465 14.79470 30099 ft 455 kts 272°
2026-04-24 21:57 48.05540 14.70006 30098 ft 456 kts 272°
2026-04-24 21:58 48.05605 14.60536 30091 ft 456 kts 272°
2026-04-24 21:58 48.05666 14.51054 30102 ft 456 kts 272°
2026-04-24 21:59 48.05722 14.41574 30109 ft 457 kts 272°
2026-04-24 21:59 48.05592 14.32081 30096 ft 459 kts 264°
2026-04-24 22:00 48.03883 14.22881 30097 ft 463 kts 247°
2026-04-24 22:00 48.01038 14.14312 30092 ft 464 kts 245°
2026-04-24 22:01 47.98112 14.05728 30106 ft 463 kts 245°
2026-04-24 22:01 47.95217 13.97140 30113 ft 463 kts 245°
2026-04-24 22:02 47.92338 13.88537 30114 ft 463 kts 245°
2026-04-24 22:02 47.89460 13.79943 30127 ft 463 kts 245°
2026-04-24 22:03 47.86570 13.71342 30123 ft 463 kts 245°
2026-04-24 22:03 47.83697 13.62824 30118 ft 463 kts 245°
2026-04-24 22:04 47.80792 13.54241 30126 ft 464 kts 245°
2026-04-24 22:04 47.77878 13.45661 30119 ft 461 kts 245°
2026-04-24 22:04 47.76462 13.41510 30103 ft 439 kts 245°
2026-04-24 22:05 47.75110 13.37553 30106 ft 423 kts 245°
2026-04-24 22:05 47.72454 13.29779 30129 ft 422 kts 245°
2026-04-24 22:06 47.69795 13.22013 30137 ft 422 kts 245°
2026-04-24 22:06 47.67123 13.14236 29597 ft 427 kts 245°
2026-04-24 22:06 47.65772 13.10312 28886 ft 426 kts 244°
2026-04-24 22:07 47.64451 13.06488 28288 ft 418 kts 244°
2026-04-24 22:07 47.63132 13.02674 27639 ft 413 kts 244°
2026-04-24 22:07 47.61823 12.98893 26977 ft 411 kts 244°
2026-04-24 22:07 47.60483 12.95023 26332 ft 434 kts 244°
2026-04-24 22:08 47.59071 12.90944 25638 ft 455 kts 244°
2026-04-24 22:08 47.57594 12.86687 24868 ft 474 kts 244°
2026-04-24 22:08 47.56063 12.82289 24429 ft 483 kts 244°
2026-04-24 22:08 47.54525 12.77887 24495 ft 478 kts 244°
2026-04-24 22:09 47.52997 12.73525 24462 ft 476 kts 244°
2026-04-24 22:09 47.51495 12.69236 24442 ft 474 kts 244°
2026-04-24 22:09 47.49979 12.64914 24415 ft 473 kts 244°
2026-04-24 22:09 47.48467 12.60608 24405 ft 471 kts 244°
2026-04-24 22:10 47.46956 12.56308 24395 ft 470 kts 244°
2026-04-24 22:10 47.45447 12.52023 24393 ft 470 kts 244°
2026-04-24 22:10 47.43935 12.47734 24379 ft 469 kts 244°
2026-04-24 22:10 47.42428 12.43467 24374 ft 468 kts 244°
2026-04-24 22:11 47.40921 12.39206 24363 ft 468 kts 244°
2026-04-24 22:11 47.39811 12.34725 24326 ft 465 kts 260°
2026-04-24 22:11 47.39613 12.29990 24342 ft 462 kts 276°
2026-04-24 22:11 47.39995 12.25357 23703 ft 445 kts 279°
2026-04-24 22:12 47.40462 12.20967 22905 ft 421 kts 280°
2026-04-24 22:12 47.40917 12.16805 22121 ft 401 kts 280°
2026-04-24 22:12 47.41333 12.12811 21351 ft 385 kts 280°
2026-04-24 22:12 47.41710 12.08962 20596 ft 373 kts 279°
2026-04-24 22:13 47.42062 12.05227 19869 ft 362 kts 279°
2026-04-24 22:13 47.42398 12.01584 19159 ft 353 kts 279°
2026-04-24 22:13 47.42723 11.98035 18467 ft 346 kts 279°
2026-04-24 22:13 47.42692 11.94525 17654 ft 343 kts 259°
2026-04-24 22:14 47.41854 11.91267 16893 ft 340 kts 241°
2026-04-24 22:14 47.40543 11.88382 16153 ft 335 kts 237°
2026-04-24 22:14 47.39209 11.85644 15417 ft 330 kts 236°
2026-04-24 22:14 47.37884 11.82903 14699 ft 325 kts 238°
2026-04-24 22:15 47.36808 11.80003 14002 ft 319 kts 248°
2026-04-24 22:15 47.35967 11.76987 13223 ft 316 kts 251°
2026-04-24 22:15 47.35185 11.73983 12459 ft 312 kts 251°
2026-04-24 22:15 47.34409 11.71013 11708 ft 309 kts 251°
2026-04-24 22:16 47.33629 11.68089 10973 ft 304 kts 251°
2026-04-24 22:16 47.32847 11.65209 10259 ft 300 kts 250°
2026-04-24 22:16 47.32079 11.62418 9483 ft 285 kts 250°
2026-04-24 22:16 47.31350 11.59790 8700 ft 268 kts 250°
2026-04-24 22:17 47.30669 11.57342 7957 ft 256 kts 250°
2026-04-24 22:17 47.30006 11.54959 7199 ft 247 kts 248°
2026-04-24 22:17 47.29361 11.52642 6475 ft 241 kts 248°
2026-04-24 22:17 47.28728 11.50377 5711 ft 237 kts 248°
2026-04-24 22:18 47.28104 11.48150 4933 ft 232 kts 248°
2026-04-24 22:18 47.27500 11.46000 4225 ft 223 kts 248°
2026-04-24 22:18 47.27056 11.43879 3608 ft 212 kts 258°
2026-04-24 22:18 47.26789 11.41826 3078 ft 198 kts 263°
2026-04-24 22:19 47.26615 11.39929 2712 ft 174 kts 262°
2026-04-24 22:19 47.26443 11.38290 2419 ft 149 kts 261°
2026-04-24 22:19 47.26286 11.36865 2119 ft 138 kts 261°
2026-04-24 22:19 47.26143 11.35521 1920 ft 132 kts 260°
2026-04-24 22:20 47.26018 11.34372 1903 ft 85 kts 262°
2026-04-24 22:20 47.25960 11.33829 1905 ft 22 kts 261°
2026-04-24 22:20 47.25921 11.33715 1905 ft 8 kts 202°
2026-04-24 22:20 47.25861 11.33771 1897 ft 12 kts 126°
2026-04-24 22:21 47.25804 11.33892 1894 ft 15 kts 125°
2026-04-24 22:21 47.25770 11.34030 1893 ft 14 kts 92°
2026-04-24 22:21 47.25782 11.34172 1887 ft 14 kts 81°
2026-04-24 22:21 47.25796 11.34307 1893 ft 13 kts 80°
2026-04-24 22:22 47.25811 11.34438 1888 ft 13 kts 80°
2026-04-24 22:22 47.25824 11.34563 1892 ft 12 kts 82°
2026-04-24 22:22 47.25836 11.34685 1889 ft 10 kts 82°
2026-04-24 22:22 47.25841 11.34743 1898 ft 3 kts 98°
2026-04-24 22:23 47.25823 11.34767 1889 ft 3 kts 143°
2026-04-24 22:23 47.25800 11.34780 1898 ft 4 kts 148°
2026-04-24 22:23 47.25792 11.34786 2070 ft 2 kts 352°